Regional Weather Roundup
Issued by NWS

Home | Current Version | Previous Version | Text Only | Print | Product List | Glossary Off
Versions: 1 2 3 4 5 6 7 8 9 10 11 12 13 14 15 16 17 18 19 20 21 22 23 24 25 26 27 28 29 30 31 32 33 34 35 36 37 38 39 40 41 42 43 44 45 46 47 48 49 50

205
ASUS43 KLSX 282159
RWRMO

WEATHER SUMMARY FOR MISSOURI
NATIONAL WEATHER SERVICE SPRINGFIELD MO
500 PM CDT WED JUN 28 2017

NOTE: "FAIR" INDICATES FEW OR NO CLOUDS BELOW 12,000 FEET WITH NO
       SIGNIFICANT WEATHER AND/OR OBSTRUCTIONS TO VISIBILITY.
       CURRENT SKY AND/OR WEATHER CONDITIONS ARE NOT AVAILABLE FOR
       CHILLICOTHE AND FARMINGTON.

MOZ001>031-035>038-043-044-053-054-282300-
...NORTHERN AND WESTERN MISSOURI...

CITY           SKY/WX    TMP DP  RH WIND       PRES   REMARKS
KANSAS CTY INT MOSUNNY   88  72  58 SW21G29   29.73F HX  94
KANSAS C DTWN  MOSUNNY   90  69  50 S24G31    29.75F HX  94
LEE`S SUMMIT   MOSUNNY   88  71  57 S21G31    29.78F HX  94
ST JOSEPH      MOSUNNY   88  73  61 S22G33    29.68F HX  95
CHILLICOTHE      N/A     87  71  58 S15G30    29.75F HX  93
KIRKSVILLE     MOSUNNY   86  70  58 S20G31    29.77F HX  90

$$
MOZ066>068-077>081-088>096-101>105-282300-
...SOUTHWEST MISSOURI...

CITY           SKY/WX    TMP DP  RH WIND       PRES   REMARKS
SPRINGFIELD    SUNNY     86  66  51 S18G29    29.89F
JOPLIN         MOSUNNY   88  70  55 S20G25    29.86F HX  93
BRANSON        PTSUNNY   84  64  51 S10G21    29.95S

$$
MOZ032>034-039>042-045>050-055>058-069>072-282300-
...CENTRAL MISSOURI...

CITY           SKY/WX    TMP DP  RH WIND       PRES   REMARKS
COLUMBIA       SUNNY     87  67  51 S17       29.84F HX  90
JEFFERSON CITY SUNNY     88  63  43 S15G26    29.83F
ROLLA          SUNNY     86  65  49 S21G26    29.89F
SEDALIA        MOSUNNY   88  72  58 S17G25    29.83F HX  94
WARRENSBURG    MOSUNNY   86  68  54 S14G23    29.80F
OSAGE BEACH    SUNNY     87  68  52 S12G23    29.88S HX  90

$$
MOZ051-052-059>065-282300-
...EAST CENTRAL MISSOURI...

CITY           SKY/WX    TMP DP  RH WIND       PRES   REMARKS
ST LOUIS INTL  MOSUNNY   90  62  39 SW18G29   29.88F HX  90
SPIRIT OF STL  MOSUNNY   87  65  47 S7G25     29.86S
ST CHARLES     SUNNY     88  64  44 SW20G25   29.86S

$$
MOZ072>076-082>087-097>100-106>115-282300-
...SOUTH CENTRAL AND SOUTHEAST MISSOURI...

CITY           SKY/WX    TMP DP  RH WIND       PRES   REMARKS
CAPE GIRARDEAU PTSUNNY   85  63  47 S15       29.96F
FARMINGTON     SUNNY     85  62  46 S16G24    29.94F
POPLAR BLUFF   CLOUDY    85  68  56 S13       29.96F
WEST PLAINS    MOSUNNY   85  62  46 S15G22    29.97F

$$




USA.gov is the U.S. government's official web portal to all federal, state and local government web resources and services.